CBERS 4

Last updated on Mon Jun 22 2026 00:02:51 GMT+0000 (Coordinated Universal Time)

1 40336U 14079A 26172.49813473 .00000295 00000+0 11719-3 0 9991 2 40336 98.3525 229.1950 0001695 60.3510 299.7845 14.35510713604570
UTC large
Height (km)
Speed (km/s)
/
Latitude / Longitude
Inclination (degrees)
Orbital Period (minutes)
Azimuth
Elevation
Range (km)
Doppler Factor

Next 0 passes for location: London (51.5072 / 0.1276)

No passes found over London.